Voltar ao catálogo

HULIANWANG DIGUI-40

AtivoComunicaçõesLEO
NORAD 65043·PAYLOAD·🇨🇳 China

Lançado Jul 30, 2025 de Wenchang Space Launch Site

Loading…

Próximas Passagens (próximas 24 horas)

TLE

AtualizadoSource: Space-Track

Época: Sep 14, 2026, 20:31 UTC

1 65043U 25162A   26257.85516448 -.00000083  00000-0  87847-4 0  9997
2 65043  50.0002 304.3154 0000682 261.3412  98.7383 13.29327400 55270

Acompanhe HULIANWANG DIGUI-40 em tempo real com AllMySat

Download on the App Store